This demonstration page uses our WeatherBlox Daily Observations layout. Learn more.

Left ArrowRight Arrow

38.83388, -104.82136

Hourly Observations for January 12, 2022

Temp ( °F °C ) Dew Point ( °F °C ) Humidity (%) Winds ( mph kmh ) Pressure ( in mb ) Visibility ( mi km ) Precip ( " mm )
12:54 am 00:54 Mostly Cloudy 26 -3.3 9 -12.8 48 48 NE 6 9 30.25 1024 10 16 0.00 0.00
1:54 am 01:54 Mostly Cloudy 27 -2.8 9 -12.8 46 46 NNE 5 7 30.24 1024 10 16 0.00 0.00
2:54 am 02:54 Mostly Cloudy 25 -3.9 9 -12.8 50 50 N 9 15 30.24 1024 10 16 0.00 0.00
3:54 am 03:54 Mostly Cloudy 28 -2.2 10 -12.2 47 47 N 9 15 30.23 1024 10 16 0.00 0.00
4:54 am 04:54 Mostly Cloudy 34 1.1 8 -13.3 34 34 NNW 7 11 30.22 1023 10 16 0.00 0.00
5:54 am 05:54 Mostly Cloudy 36 2.2 6 -14.4 28 28 NNE 9 15 30.25 1024 10 16 0.00 0.00
6:54 am 06:54 Mostly Cloudy 37 2.8 5 -15 26 26 VRB 3 6 30.27 1025 10 16 0.00 0.00
7:54 am 07:54 Mostly Cloudy 40 4.4 7 -13.9 25 25 N 9 15 30.28 1025 10 16 0.00 0.00
8:54 am 08:54 Mostly Cloudy 46 7.8 10 -12.2 23 23 NNW 6 9 30.28 1026 10 16 0.00 0.00
9:54 am 09:54 Mostly Cloudy 54 12.2 8 -13.3 16 16 Calm 30.28 1026 10 16 0.00 0.00
10:54 am 10:54 Mostly Cloudy 54 12.2 -1 -18.3 10 10 SSE 7 11 30.29 1026 10 16 0.00 0.00
11:54 am 11:54 Mostly Cloudy 56 13.3 2 -16.7 11 11 S 9 15 30.28 1025 10 16 0.00 0.00
12:54 pm 12:54 Mostly Cloudy 57 13.9 5 -15 12 12 S 10 17 30.26 1025 10 16 0.00 0.00
1:54 pm 13:54 Mostly Cloudy 57 13.9 5 -15 12 12 S 10 17 30.25 1024 10 16 0.00 0.00
2:54 pm 14:54 Mostly Cloudy 56 13.3 6 -14.4 13 13 SSE 13 20 30.28 1025 10 16 0.00 0.00
3:54 pm 15:54 Mostly Cloudy 53 11.7 6 -14.4 15 15 SSE 9 15 30.28 1025 10 16 0.00 0.00
4:54 pm 16:54 Mostly Cloudy 48 8.9 8 -13.3 19 19 S 8 13 30.29 1026 10 16 0.00 0.00
5:54 pm 17:54 Mostly Cloudy 47 8.3 7 -13.9 19 19 SSE 3 6 30.28 1026 10 16 0.00 0.00
6:54 pm 18:54 Mostly Cloudy 44 6.7 7 -13.9 22 22 Calm 30.30 1026 10 16 0.00 0.00
7:54 pm 19:54 Mostly Cloudy 34 1.1 9 -12.8 35 35 NE 5 7 30.34 1027 10 16 0.00 0.00
8:54 pm 20:54 Partly Cloudy 35 1.7 10 -12.2 35 35 N 10 17 30.29 1026 10 16 0.00 0.00
9:54 pm 21:54 Mostly Clear 39 3.9 11 -11.7 31 31 N 10 17 30.24 1024 10 16 0.00 0.00
10:54 pm 22:54 Mostly Cloudy 40 4.4 17 -8.3 40 40 N 9 15 30.23 1024 10 16 0.00 0.00
11:54 pm 23:54 Mostly Cloudy 47 8.3 18 -7.8 31 31 NNW 13 20 30.19 1022 10 16 0.00 0.00

Powered by AerisWeather